Regional Weather Roundup
Issued by NWS

Home | Current Version | Previous Version | Graphics & Text | Print | Product List | Glossary On
Versions: 1 2 3 4 5 6 7 8 9 10 11 12 13 14 15 16 17 18 19 20 21 22 23 24 25 26 27 28 29 30 31 32 33 34 35 36 37 38 39 40 41 42 43 44 45 46 47 48 49 50
000
ASUS43 KLOT 240609
RWRIL

ILLINOIS REGIONAL WEATHER ROUNDUP
NATIONAL WEATHER SERVICE CHICAGO/ROMEOVILLE IL
100 AM CDT MON JUL 24 2017

NOTE: "FAIR" INDICATES FEW OR NO CLOUDS BELOW 12,000 FEET WITH NO
SIGNIFICANT WEATHER AND/OR OBSTRUCTIONS TO VISIBILITY.

* THESE STATIONS ARE NOT UNDER NWS QUALITY CONTROL. THEY ALSO MAY NOT
  REPORT WEATHER SUCH AS PRECIPITATION OR FOG.

ILZ001-002-007-009-015-016-024-240700-
NORTHWEST ILLINOIS

CITY           SKY/WX    TMP DP  RH WIND       PRES   REMARKS
MOLINE         CLEAR     69  61  75 CALM      29.92S
6HR MIN TEMP:  69; 6HR MAX TEMP:  82;

STERLING*      CLEAR     69  64  84 NW5       29.92R
SAVANNA*       CLEAR     67  62  83 NW5       29.92S
$$

ILZ003-004-008-010-011-017-018-240700-
NORTH CENTRAL ILLINOIS

CITY           SKY/WX    TMP DP  RH WIND       PRES   REMARKS
ROCKFORD       PTCLDY    70  64  81 NE8       29.93R
6HR MIN TEMP:  70; 6HR MAX TEMP:  80;

FREEPORT*      CLEAR     65  62  87 N5        29.94R
ROCHELLE*      CLEAR     67  64  93 N6        29.92R
DE KALB*       CLOUDY    69  67  96 E7        29.92R
PERU*          CLEAR    N/A N/A N/A N8        29.90S
$$

ILZ005-006-012>014-019>023-240700-
NORTHEAST ILLINOIS

CITY           SKY/WX    TMP DP  RH WIND       PRES   REMARKS
CHICAGO-OHARE  MOCLDY    70  63  78 NE12      29.90R
6HR MIN TEMP:  70; 6HR MAX TEMP:  75;

CHICAGO-MIDWAY MOCLDY    71  65  81 N13       29.90R
6HR MIN TEMP:  71; 6HR MAX TEMP:  76;

AURORA         PTCLDY    68  67  96 NE5       29.91R
6HR MIN TEMP:  65; 6HR MAX TEMP:  71;

LANSING*       CLOUDY    72  66  82 NE9G16    29.90R
JOLIET*        PTCLDY    69  68  96 CALM      29.90R
WAUKEGAN       MOCLDY    66  62  87 N8        29.91R
6HR MIN TEMP:  66; 6HR MAX TEMP:  75;

DUPAGE AIRPORT CLOUDY    68  66  93 NE13      29.91R
6HR MIN TEMP:  66; 6HR MAX TEMP:  72;

WHEELING       CLOUDY    69  65  86 NE8       29.93R
6HR MIN TEMP:  69; 6HR MAX TEMP:  73;

MORRIS*        CLEAR     67  66  95 CALM      29.89R
ROMEOVILLE*    PTCLDY    68  65  89 NE7       29.90R
NORTHERLY ISL    N/A     69  64  84 NE13        N/A
$$

LMZ740>746-240700-
SOUTHERN LAKE MICHIGAN

STATION/POSITION SKY/WX   TEMP    WIND        PRES    VSBY  WAVE
                          AIR SEA DIR/SP/G                  HT/PER
                          (F)     (DEG/KT/KT) (MB)    (MI)  (FT/S)
SOUTHERN BUOY              67 70   20/ 19/ 21 1011.5          4/ 5
WILMETTE HARBOR            69 73   10/ 14/ 17   N/A           4/ 4
HARRISON CRIB              70      20/ 20/ 22   N/A
BURNHAM HARBOR             69                   N/A
CALUMET HARBOR                    360/ 10/ 16 1012.3R
BURNS HARBOR               72      20/ 17/ 19 1012.5R
MICHIGAN CITY              71     360/ 20/ 21   N/A
MICHIGAN CITY 6N           71 75   10/ 16/ 19   N/A           3/ 3
ST. JOSEPH                 71 75   40/ 17/ 21 1011.7          4/ 4
$$

ILZ025>027-034>036-040-047-049-050-058-095>099-240700-
WEST-CENTRAL ILLINOIS

CITY           SKY/WX    TMP DP  RH WIND       PRES   REMARKS
QUINCY         CLEAR     71  63  75 N5        29.93S
GALESBURG*     CLEAR     65  62  89 NW3       29.94S
MACOMB*        CLEAR     66  63  88 NW3       29.95S
JACKSONVILLE*  CLEAR     70  64  82 CALM      29.92R
PITTSFIELD*    CLEAR     71  66  84 N6        29.93S
$$

ILZ028>032-037-038-041>044-048-051>054-059>061-240700-
CENTRAL ILLINOIS

CITY           SKY/WX    TMP DP  RH WIND       PRES   REMARKS
PONTIAC        CLEAR     68  68  98 W6        29.90S
BLOOMINGTON    CLEAR     70  65  84 W5        29.91S
DECATUR        PTCLDY    74  66  76 NW5       29.90S
PEORIA         CLEAR     70  65  84 NW5       29.91S
6HR MIN TEMP:  70; 6HR MAX TEMP:  85;

LACON*         CLEAR     69  66  92 CALM      29.90S
LINCOLN*       PTCLDY    73  67  82 CALM      29.90S
SPRINGFIELD    CLEAR     73  69  87 N3        29.91S
6HR MIN TEMP:  71; 6HR MAX TEMP:  82;

TAYLORVILLE    MOCLDY    70  70  98 CALM      29.91R
6HR MIN TEMP:  70; 6HR MAX TEMP:  79;

$$

ILZ033-039-045-046-055>057-062-063-240700-
EAST-CENTRAL ILLINOIS

CITY           SKY/WX    TMP DP  RH WIND       PRES   REMARKS
CHAMPAIGN      CLEAR     68  66  93 SW6       29.89S
RANTOUL*       CLEAR     70  69  97 NW5       29.89S
MATTOON        PTCLDY    72  72 100 W3        29.88F
PARIS*         CLEAR     68  67  98 W6        29.88S
$$

ILZ079-100>102-240700-
SOUTHWEST ILLINOIS

CITY           SKY/WX    TMP DP  RH WIND       PRES   REMARKS
ALTON          CLEAR     73  72  98 CALM      29.91R
BELLEVILLE     CLEAR     75  71  88 CALM      29.90R
CAHOKIA*       CLEAR     75  70  84 CALM      29.89R
SPARTA*        PTCLDY    76  70  83 CALM      29.91S
$$

ILZ064>066-069>071-074>076-080>082-084>086-088>090-092>094-240700-
SOUTH-CENTRAL ILLINOIS

CITY           SKY/WX    TMP DP  RH WIND       PRES   REMARKS
CARBONDALE     CLEAR     73  73 100 CALM      29.90R
6HR MIN TEMP:  72; 6HR MAX TEMP:  87;

CAIRO*         PTCLDY    77  73  89 W3        29.90R
EFFINGHAM*     CLOUDY    75  74  98 CALM      29.90F
MARION         CLEAR     75  73  94 S3        29.91R
MT. VERNON     CLEAR     71  70  96 CALM      29.89S
CENTRALIA*     PTCLDY    73  72  97 CALM      29.89R
SALEM*         MOCLDY    75  71  86 CALM      29.90R
METROPOLIS*    PTCLDY    77  74  89 SW5       29.91S
$$

ILZ067-068-072-073-078-083-087-091-240700-
SOUTHEAST ILLINOIS

CITY           SKY/WX    TMP DP  RH WIND       PRES   REMARKS
LAWRENCEVILLE  PTCLDY    74  71  91 NW6       29.87R
FLORA*         PTCLDY    75  70  85 W5        29.88F
FAIRFIELD*     PTCLDY    71  71 100 CALM      29.87F
HARRISBURG*    CLEAR     69  69  99 CALM      29.90S
ROBINSON*      CLOUDY    70  69  96 CALM      29.87S
CARMI*         CLEAR     70  70 100 S5        29.88S
$$

ABBREVIATIONS USED IN REMARKS
   TC - TEMPERATURE IN CELSIUS
  WCI - WIND CHILL INDEX
   HX - HEAT INDEX
  VSB - VISIBILITY
$$





USA.gov is the U.S. government's official web portal to all federal, state and local government web resources and services.